www.pogodaiklimat.ru

Погода и климат >> Архив погоды >> Парагвай >> Pilar


ПОГОДА в Pilar

  • Прогноз погоды в Pilar
  • Монитор погоды в Pilar
  • Климат города

АРХИВ ПОГОДЫ в Pilar

Время (UTC), дата Ветер
(напр.,м/с)
 
Видим.   Явления Облачность Т
(С)
Тd
(С)
f
(%)
Тe
(С)
Тes
(С)
Комфортность P
(гПа)
Po
(гПа)
Тmin
(С)
Tmax
(С)
R
(мм)
R24
(мм)
S
(см)
18 11.10 ЮВ 2 20 км 4/4 1200 м
[Cu med, cong]
+26.6 +16.1 53 +30 +40 душно 1011.2 1004.6
21 11.10 ЮВ 3 20 км 4/1 1000 м
[Cu Sc Ci]
+26.4 +17.6 58 +31 +32 душно 1009.2 1002.5
00 12.10 Ю 2 20 км 5/5 800 м
[Cu Sc]
+23.0 +16.7 68 +28 +28 душно 1009.9 1003.2 +28.0
03 12.10 Ю 2 20 км 10/10 420 м
[Sc]
+21.8 +17.1 75 +26 +26 душно 1010.2 1003.5
06 12.10 Ю 2 20 км 6/6 500 м
[Sc]
+21.0 +17.5 80 +26 +26 душно 1009.9 1003.2
09 12.10 ЮВ 2 20 км 6/1 800 м
[Cu Sc Cs]
+20.2 +16.7 80 +24 +24 комфорт 1009.0 1002.2
12 12.10 СВ 3 20 км 6/6 600 м
[Sc]
+24.2 +19.3 74 +29 +31 душно 1009.1 1002.4 +19.6
15 12.10 С 4 20 км 8/8 600 м
[Sc]
+27.6 +19.0 59 +33 +36 очень
душно
1009.1 1002.5
21 12.10 Ю 6 20 км 10/10 500 м
[Sc]
+18.4 +14.2 77 +18 +18 1009.5 1002.7
00 13.10 Ю 5 20 км 10/4 500 м
[Cu Sc Ac As]
+18.2 +16.3 89 +18 +18 1011.5 1004.6 +29.5
03 13.10 Ю 4 20 км 10/10 420 м
[Sc]
+17.6 +16.2 91 +17 +17 1012.4 1005.5
09 13.10 Ю 4 20 км {дождь} 10/10 300 м
[Sc]
+16.2 +14.4 89 +15 +15 1014.0 1007.1 0.3
12 13.10 Ю 5 10 км дождь 10/10 420 м
[Sc]
+16.0 +14.4 90 +15 +15 1016.6 1009.7 +15.8 2
15 13.10 Ю 5 20 км {дождь} 10/10 420 м
[Sc Ac As]
+16.4 +14.2 87 +15 +15 1017.7 1010.7 0.3
18 13.10 Ю 6 20 км 10/10 420 м
[Sc]
+18.0 +14.4 79 +17 +17 1016.6 1009.7 0.0
21 13.10 Ю 5 20 км 10/10 420 м
[Sc]
+17.6 +13.3 76 +17 +17 1015.8 1008.9
00 14.10 Ю 3 20 км 9/9 600 м
[Sc]
+17.8 +14.7 82 +18 +18 1015.6 1008.7 +19.5
03 14.10 Ю 3 20 км 8/8 600 м
[Sc]
+17.0 +15.0 88 +17 +17 1016.3 1009.4
06 14.10 Ю 3 20 км 10/10 600 м
[Sc]
+16.6 +13.9 84 +16 +16 1014.9 1008.0
09 14.10 Ю 4 20 км 10/10 600 м
[Sc]
+16.0 +14.1 88 +15 +15 1014.1 1007.2
12 14.10 Ю 4 20 км 10/0 1500 м
[Ac und]
+16.4 +13.9 85 +16 +17 1015.3 1008.4 +15.8 0.3
15 14.10 Ю 4 20 км 8/8 600 м
[Sc]
+18.8 +13.9 73 +20 +22 1016.1 1009.2
18 14.10 ЮВ 4 20 км 8/8 600 м
[Sc]
+22.4 +11.2 49 +25 +27 комфорт 1016.4 1009.7
21 14.10 Ю 5 20 км 9/9 500 м
[St]
+22.0 +11.2 50 +24 +24 комфорт 1015.0 1008.7
00 15.10 Ю 1 20 км ясно +19.4 +15.3 77 +22 +22 комфорт 1013.5 1006.7 +25.0
03 15.10 Ю 4 20 км ясно +18.0 +16.3 90 +18 +18 1014.1 1007.3
06 15.10 штиль 0 20 км 6/6 500 м
[Sc Ac und]
+17.0 +15.3 90 +17 +17 1014.2 1007.3
09 15.10 Ю 4 20 км 3/0
[Cs]
+14.0 +12.1 88 +13 +13 1013.9 1007.0
12 15.10 Ю 4 20 км 3/0
[Cs]
+19.0 +13.7 71 +20 +25 1014.3 1007.5 +14.0
15 15.10 Ю 3 20 км 3/0
[Ci]
+24.0 +13.8 53 +26 +41 жарко 1014.9 1008.2
18 15.10 Ю 3 20 км 3/0
[Ci]
+26.6 +23.0 81 +36 +49 очень
душно
1008.8 1002.1
21 15.10 ЮВ 3 20 км 3/0
[Ci]
+26.0 +21.5 76 +33 +35 очень
душно
1008.8 1002.1
00 16.10 ЮВ 1 20 км ясно +20.4 +16.7 79 +25 +25 комфорт 1009.5 1002.7 +27.0
03 16.10 ЮВ 4 20 км ясно +18.0 +14.5 80 +18 +18 1009.5 1002.7
06 16.10 штиль 0 20 км ясно +15.2 +11.1 77 +15 +15 1008.8 1001.9
09 16.10 штиль 0 20 км ясно +15.0 +11.2 78 +15 +15 1008.6 1001.7
12 16.10 ЮВ 1 20 км ясно +23.0 +14.8 60 +27 +35 душно 1009.2 1002.5 +14.0
15 16.10 С 7 20 км ясно +26.6 +16.0 52 +30 +36 душно 1009.1 1002.4
18 16.10 С 5 20 км 3/3 1200 м
[Cu hum]
+29.0 +19.8 58 +35 +41 очень
душно
1007.1 1000.5
21 16.10 СВ 5 20 км 5/3 1200 м
[Cu hum Ci]
+28.0 +20.3 63 +34 +35 очень
душно
1000.3 998.7
00 17.10 штиль 0 20 км ясно +24.4 +20.7 80 +30 +30 очень
душно
1004.8 998.1 +30.0
03 17.10 СВ 6 20 км ясно +23.0 +18.2 74 +29 +29 очень
душно
1004.8 998.1
06 17.10 СВ 2 20 км ясно +22.0 +19.0 83 +27 +27 душно 1004.8 998.1
09 17.10 ЮВ 3 20 км 6/4 800 м
[St Ac As]
+22.2 +18.8 81 +28 +28 душно 1003.9 997.2
12 17.10 В 4 20 км 3/3 1200 м
[St]
+26.6 +23.0 81 +36 +39 очень
душно
1005.2 998.6 +21.0
15 17.10 СВ 6 20 км 5/4 1200 м
[Cu med, cong Cs]
+32.2 +21.8 54 +41 +45 опасность
перегрева
1005.2 998.7
18 17.10 СВ 7 20 км 5/4 1200 м
[Cu med, cong Cs]
+34.4 +25.4 60 +49 +52 опасность
перегрева
1002.5 996.1
21 17.10 С 10 20 км 5/3 800 м
[Cb calv Cs]
+33.0 +24.5 61 +46 +46 опасность
перегрева
1000.9 994.4
00 18.10 ЮВ 4 20 км 8/8 800 м
[Cu Sc]
+29.0 +24.8 78 +41 +41 опасность
перегрева
1005.0 998.4 +35.0
03 18.10 ЮВ 6 20 км 3/0
[Ci]
+26.2 +23.2 84 +35 +35 очень
душно
1006.0 999.4
06 18.10 ЮВ 5 20 км зарница 10/10 300 м
[Sc Ac inh]
+24.8 +20.5 77 +31 +31 очень
душно
1005.1 998.4
09 18.10 ЮВ 5 20 км зарница 9/8 600 м
[Cu Sc]
+23.2 +21.4 90 +31 +31 очень
душно
1006.4 999.7
12 18.10 ЮВ 4 20 км 1/0
[Cs]
+26.0 +23.1 84 +35 +39 очень
душно
1007.2 1000.5 +22.0
15 18.10 СВ 5 20 км 1/0
[Cs]
+31.2 +22.1 58 +40 +50 очень
душно
1007.6 1001.1

 

Местоположение метеостанции Pilar (Парагвай): широта -26.85 долгота -58.31 высота над уровнем моря 56 м.

В архиве по умолчанию представлена погода в Pilar за последнюю неделю. Архивные данные за месяц целиком и за предыдущие месяцы, начиная с января 2011 года, Вы можете получить, выбрав интересующий диапазон дат из раскрывающегося списка и нажав кнопку "Ввод!".


*Определитесь, кто Вы:
робот инопланетянин человек

Внимание! Время в таблицах - всемирное. Для получения местного времени необходимо прибавить поправку, которая в Pilar равна -4 ч.

Смотрите также архив погоды в соседних городах и на ближайших метеорологических станциях:

Погода в Formosa (Аргентина) (73 км)
Погода в Corrientes (Аргентина) (80 км)
Погода в Resistencia (Аргентина) (99 км)
Погода в San Juan Bautista Misiones (Парагвай) (117 км)
Погода в Quyquyhat (Парагвай) (150 км)
Погода в Paraguari (Парагвай) (180 км)
Погода в Asuncion (Парагвай) (195 км)
Погода в Caazapa (Парагвай) (209 км)
Погода в Presidencia Roque Saenz Pena (Аргентина) (216 км)
Погода в Villarrica (Парагвай) (224 км)

Пояснения к столбцам:

Ветер - указаны скорость ветра в м/с - средняя за 10 мин, порывы в срок и между сроками (в фигурных скобках) и направление, откуда дует ветер: С - северный, СВ - северо-восточный, В - восточный, ЮВ - юго-восточный, Ю - южный, ЮЗ - юго-западный, З - западный, СЗ - северо-западный.
Видимость - горизонтальная дальность видимости в метрах или километрах. При видимости от 1 до 10 км при отсутствии осадков обычно наблюдается дымка, при ухудшении видимости до 1 км и менее - туман. В сухую погоду видимость может ухудшаться дымом, пылью или мглою.
Явления - указаны атмосферные явления, наблюдавшиеся в срок или в последний час перед сроком; фигурными скобками обозначены явления, наблюдавшиеся между сроками (за 1-3 часа до срока); квадратными скобками обозначены град или гололедные отложения с указанием их диаметра в мм.
Облачность - указаны через наклонную черту общая и нижняя облачность в баллах и высота нижней границы облаков в метрах; квадратными скобками обозначены формы облаков: Ci - перистые, Cs - перисто-слоистые, Cc - перисто-кучевые, Ac - высококучевые, As - высокослоистые, Sc - слоисто-кучевые, Ns - слоисто-дождевые, Cu - кучевые, Cb - кучево-дождевые. Подробнее классификацию облаков см. в Атласе облаков (PDF).
T - Температура воздуха - температура, измеренная на высоте 2 м над землей.
Td - Температура точки росы - температура, при понижении до которой содержащийся в воздухе водяной пар достигнет насыщения.
f - Относительная влажность воздуха - влажноcть воздуха, измеренная на высоте 2 м над землей.
Te - Эффективная температура - температура, которую ощущает одетый по сезону человек в тени. Характеристика душности погоды. При расчете учитывается влияние влажности воздуха и скорости ветра на теплоощущения человека.
Tes - Эффективная температура на солнце - температура, которую ощущает человек, с поправкой на солнечный нагрев. Характеристика знойности погоды. Зависит от высоты солнца над горизонтом, облачности и скорости ветра. Ночью, в пасмурную погоду, а также при ветре 12 м/с и более поправка равна нулю.
P - Атмосферное давление - приведенное к уровню моря атмосферное давление.
Po - Атмосферное давление - измеренное на уровне метеостанции атмосферное давление.
Tmin - Минимальная температура - минимум температуры воздуха на высоте 2 м над землей.
Tmax - Максимальная температура - максимум температуры воздуха на высоте 2 м над землей.
R - Количество осадков - Количество выпавших осадков за период времени, мм. При наведении курсора мыши на число - период времени, за который выпало указанное количество осадков.
R24 - Количество осадков - Количество выпавших осадков за 24 часа, мм.
S - Снежный покров - Высота снежного покрова, см. При наведении курсора мыши на число - состояние снежного покрова и степень покрытия местности в баллах.